CW6076 Weather Reports


time (UTC)temp
C
wind
direction
speed
KPH
gust
KPH
rain 1hr
cm
rain 24hr
cm
rain mn
cm
humidity
%
barometer
mb
20260507203002 11 126 0.0 1.6 0.00 0.00 0.00 74 1016.0
20260507201504 12 126 0.0 3.2 0.00 0.00 0.00 73 1015.8
20260507200003 12 79 0.0 1.6 0.00 0.00 0.00 73 1015.7
20260507194500 12 79 0.0 4.8 0.00 0.00 0.00 72 1015.7
20260507193001 12 128 0.0 3.2 0.00 0.00 0.00 71 1015.6
20260507191501 13 42 1.6 4.8 0.00 0.00 0.00 70 1015.7
20260507190004 13 165 0.0 4.8 0.00 0.00 0.00 67 1015.7
20260507184501 13 176 0.0 3.2 0.00 0.00 0.00 65 1015.6
20260507183001 14 213 1.6 8.0 0.00 0.00 0.00 65 1015.6
20260507181501 13 144 1.6 4.8 0.00 0.00 0.00 66 1015.7
20260507180004 13 130 3.2 8.0 0.00 0.00 0.00 67 1015.7
20260507174503 12 105 3.2 11.3 0.00 0.00 0.00 70 1015.7
20260507173001 12 171 4.8 14.5 0.00 0.00 0.00 71 1015.8
20260507171503 12 137 4.8 11.3 0.00 0.00 0.00 72 1015.8
20260507170011 12 152 4.8 16.1 0.00 0.00 0.00 71 1015.9
20260507164501 13 161 9.7 16.1 0.00 0.00 0.00 71 1015.8
20260507163000 13 136 11.3 16.1 0.00 0.00 0.00 70 1015.8
20260507161502 13 162 8.0 19.3 0.00 0.00 0.00 69 1015.7
20260507160003 14 154 8.0 17.7 0.00 0.00 0.00 67 1015.7
20260507154501 15 146 9.7 19.3 0.00 0.00 0.00 64 1015.8
20260507153001 15 157 8.0 14.5 0.00 0.00 0.00 60 1015.8
20260507151501 15 242 6.4 12.9 0.00 0.00 0.00 61 1015.8
20260507150003 15 170 4.8 14.5 0.00 0.00 0.00 59 1015.9
20260507144501 16 158 8.0 14.5 0.00 0.00 0.00 57 1016.0
20260507143001 16 157 8.0 12.9 0.00 0.00 0.00 56 1016.0
20260507141502 15 99 3.2 11.3 0.00 0.00 0.00 59 1016.0
20260507140006 15 156 4.8 11.3 0.00 0.00 0.00 61 1016.2
20260507134501 13 167 3.2 11.3 0.00 0.00 0.00 65 1016.2
20260507133001 13 166 4.8 11.3 0.00 0.00 0.00 68 1016.3
20260507131501 13 151 4.8 12.9 0.00 0.00 0.00 66 1016.5
20260507130002 14 159 4.8 12.9 0.00 0.00 0.00 67 1016.4
20260507124500 14 165 4.8 14.5 0.00 0.00 0.00 66 1016.4
20260507123001 14 199 4.8 16.1 0.00 0.00 0.00 66 1016.4
20260507121501 14 167 4.8 16.1 0.00 0.00 0.00 66 1016.4
20260507120003 15 190 6.4 16.1 0.00 0.00 0.00 65 1016.4
20260507114500 15 185 9.7 25.7 0.00 0.00 0.00 60 1016.3
20260507113000 15 161 9.7 19.3 0.00 0.00 0.00 60 1016.2
20260507111500 15 188 12.9 19.3 0.00 0.00 0.00 62 1016.3
20260507110003 15 148 9.7 22.5 0.00 0.00 0.00 61 1016.3
20260507104508 15 148 14.5 24.1 0.00 0.00 0.00 61 1016.4
20260507103002 15 173 9.7 24.1 0.00 0.00 0.00 60 1016.4
20260507101503 15 195 8.0 25.7 0.00 0.00 0.00 62 1016.4
20260507100002 14 155 11.3 27.4 0.00 0.00 0.00 61 1016.3
20260507094603 14 204 11.3 22.5 0.00 0.00 0.00 64 1016.3
20260507094503 14 177 11.3 22.5 0.00 0.00 0.00 63 1016.2
20260507093103 14 148 4.8 20.9 0.00 0.00 0.00 64 1016.3
20260507091600 15 165 6.4 17.7 0.00 0.00 0.00 64 1016.2
20260507090002 14 156 14.5 24.1 0.00 0.00 0.00 62 1016.2
20260507084607 14 125 4.8 16.1 0.00 0.00 0.00 63 1016.1
20260507083100 14 163 9.7 19.3 0.00 0.00 0.00 63 1016.0
20260507081601 12 178 6.4 17.7 0.00 0.00 0.00 69 1016.1
20260507080100 12 129 4.8 14.5 0.00 0.00 0.00 70 1016.1
20260507080003 12 90 4.8 14.5 0.00 0.00 0.00 70 1016.1
20260507074608 11 117 4.8 12.9 0.00 0.00 0.00 71 1015.8
20260507073102 11 355 4.8 14.5 0.00 0.00 0.00 72 1016.0
20260507071607 11 120 3.2 12.9 0.00 0.00 0.00 72 1015.9
20260507070108 10 180 4.8 14.5 0.00 0.00 0.00 72 1015.7
20260507070004 10 130 3.2 11.3 0.00 0.00 0.00 72 1015.7
20260507064601 10 178 3.2 11.3 0.00 0.00 0.00 73 1015.8
20260507063100 10 71 1.6 8.0 0.00 0.00 0.00 72 1015.9
20260507061600 10 34 3.2 8.0 0.00 0.00 0.00 73 1015.9
20260507060104 10 309 1.6 9.7 0.00 0.00 0.00 73 1015.7
20260507060002 10 323 0.0 9.7 0.00 0.00 0.00 72 1015.7
20260507054615 10 26 4.8 9.7 0.00 0.00 0.00 72 1015.7
20260507053108 10 75 3.2 12.9 0.00 0.00 0.00 72 1015.5
20260507051601 10 11 1.6 14.5 0.00 0.00 0.00 72 1015.5
20260507050009 10 324 1.6 12.9 0.00 0.00 0.00 72 1015.4
20260507044606 10 146 3.2 11.3 0.00 0.00 0.00 72 1015.4
20260507043101 10 176 4.8 12.9 0.00 0.00 0.00 72 1015.4
20260507041609 10 163 4.8 12.9 0.00 0.00 0.00 72 1015.4
20260507040100 10 156 3.2 12.9 0.00 0.00 0.00 72 1015.4
20260507040003 10 150 3.2 12.9 0.00 0.00 0.00 72 1015.4
20260507034609 10 130 4.8 14.5 0.00 0.00 0.00 72 1015.4
20260507033100 10 119 1.6 12.9 0.00 0.00 0.00 72 1015.4
20260507031601 10 86 1.6 12.9 0.00 0.00 0.00 71 1015.4
20260507030105 10 169 0.0 12.9 0.00 0.00 0.00 72 1015.4
20260507030002 10 136 1.6 12.9 0.00 0.00 0.00 72 1015.4
20260507024600 10 113 1.6 11.3 0.00 0.00 0.00 73 1015.4
20260507023100 9 209 1.6 9.7 0.00 0.00 0.00 75 1015.5
20260507021639 9 319 1.6 8.0 0.00 0.00 0.00 78 1015.3
20260507020113 9 5 0.0 8.0 0.00 0.00 0.00 78 1015.5
20260507020002 9 331 0.0 8.0 0.00 0.00 0.00 78 1015.5
20260507014623 9 288 3.2 8.0 0.00 0.00 0.00 78 1015.6
20260507013102 10 309 3.2 8.0 0.00 0.00 0.00 77 1015.5
20260507011607 10 346 1.6 6.4 0.00 0.00 0.00 76 1015.6
20260507010100 9 355 1.6 8.0 0.00 0.00 0.00 76 1015.7
20260507010002 9 13 1.6 8.0 0.00 0.00 0.00 76 1015.7
20260507004559 9 34 3.2 6.4 0.00 0.00 0.00 76 1015.7
20260507003100 10 65 0.0 3.2 0.00 0.00 0.00 76 1015.8
20260507001607 10 65 0.0 3.2 0.00 0.00 0.00 76 1015.8
20260507000125 10 65 0.0 0.0 0.00 0.00 0.00 75 1016.0
20260507000006 10 65 0.0 0.0 0.00 0.00 0.00 75 1016.0
20260506234502 10 65 0.0 1.6 0.00 0.00 0.00 75 1015.8
20260506233002 10 65 0.0 1.6 0.00 0.00 0.00 75 1015.8
20260506231502 10 65 0.0 1.6 0.00 0.00 0.00 74 1015.9
20260506230007 10 65 0.0 4.8 0.00 0.00 0.00 74 1016.0
20260506224502 10 260 0.0 4.8 0.00 0.00 0.00 74 1015.9
20260506223002 10 289 3.2 6.4 0.00 0.00 0.00 73 1015.8
20260506221504 10 70 0.0 8.0 0.00 0.00 0.00 72 1015.7
20260506220004 10 98 0.0 1.6 0.00 0.00 0.00 72 1015.6
20260506214502 10 73 1.6 6.4 0.00 0.00 0.00 72 1015.6
20260506213002 10 355 1.6 8.0 0.00 0.00 0.00 73 1015.6
20260506211504 10 46 0.0 4.8 0.00 0.00 0.00 74 1015.5
20260506210004 10 150 0.0 1.6 0.00 0.00 0.00 73 1015.5
20260506204502 11 165 0.0 1.6 0.00 0.00 0.00 73 1015.5